DW5678 Kavala GR current weather conditions

sailwx.info

Wind from 338

Air temperature 18.3° C
Dewpoint 13.2° C

Last reported at 2016-May-30 03:15 UTC.
Time now 2016-May-30 04:57 UTC

Location: N 40°56' E 024°24'.
View on Google Maps.

See reports from other nearby stations

  
Tides and Currents Weather Stations Pressure Air Temp Water Temp Dewpoint Dewpoint Depression Visibility Wind Speed Wind Dir Waves Ship Positions
date/time (UTC)wind fromknots sea level pressurealtimeterstation pressurevisibilityair tempwater tempwave heightnotes
2016-May-30 03:15 338 18.3
2016-May-30 03:00 338 18.9
2016-May-30 02:45 317 18.9
2016-May-30 02:30 317 18.9
2016-May-30 01:45 319 18.9
2016-May-30 01:30 340 18.9
2016-May-30 01:15 340 18.9
2016-May-30 01:00 340 19.4
2016-May-30 00:30 304 19.4
2016-May-30 00:15 304 0 gusting 1 19.4
2016-May-30 00:00 302 20.0
2016-May-29 23:45 302 20.6
2016-May-29 23:30 302 20.6
2016-May-29 23:15 302 20.6
2016-May-29 23:00 302 20.6
2016-May-29 22:45 302 20.6
2016-May-29 21:45 302 21.1
2016-May-29 21:15 302 21.1
2016-May-29 21:00 302 21.1
2016-May-29 20:30 302 21.1
2016-May-29 20:15 302 21.1
2016-May-29 19:45 292 0 gusting 4 21.1
2016-May-29 19:30 239 0 gusting 5 21.7
2016-May-29 19:15 275 0 gusting 6 21.7
2016-May-29 19:00 219 0 gusting 2 21.7
2016-May-29 18:30 234 21.7
2016-May-29 18:15 283 1 gusting 6 21.7
2016-May-29 18:00 269 0 gusting 6 21.7
2016-May-29 17:45 213 0 gusting 5 21.7
2016-May-29 17:15 246 22.2
2016-May-29 17:00 034 22.2
2016-May-29 16:15 229 0 gusting 2 21.7
2016-May-29 15:30 200 22.2
2016-May-29 15:15 211 1 gusting 5 22.2
2016-May-29 14:30 226 1 gusting 6 22.8
2016-May-29 14:15 200 0 gusting 6 22.8
2016-May-29 13:45 215 4 gusting 6 22.8
2016-May-29 13:30 261 2 gusting 6 22.2
2016-May-29 13:15 200 0 gusting 5 22.8
2016-May-29 13:00 210 2 gusting 6 22.2
2016-May-29 12:45 221 1 gusting 6 22.8
2016-May-29 12:30 249 1 gusting 6 23.3
2016-May-29 12:15 221 2 gusting 6 23.3
2016-May-29 12:00 187 0 gusting 6 23.3
2016-May-29 11:45 140 0 gusting 5 22.8
2016-May-29 11:30 163 0 gusting 4 22.2
2016-May-29 11:15 201 0 gusting 4 22.2
2016-May-29 10:45 212 1 gusting 4 22.2
2016-May-29 10:30 200 0 gusting 4 22.2
2016-May-29 10:15 236 0 gusting 5 22.8
2016-May-29 10:00 214 0 gusting 4 22.2
2016-May-29 09:45 229 0 gusting 2 21.7
2016-May-29 09:15 194 21.7
2016-May-29 09:00 197 0 gusting 4 22.2
2016-May-29 08:45 208 0 gusting 5 22.2
2016-May-29 08:30 138 0 gusting 2 22.8
2016-May-29 08:00 132 0 gusting 4 21.1
2016-May-29 07:45 234 0 gusting 4 21.1
2016-May-29 07:30 237 0 gusting 4 20.6
2016-May-29 07:00 243 0 gusting 2 20.6
2016-May-29 06:30 230 0 gusting 2 21.1
2016-May-29 06:15 180 20.6
2016-May-29 06:00 168 20.6
2016-May-29 05:30 249 0 gusting 1 20.6
2016-May-29 05:15 249 20.0
2016-May-29 05:00 249 20.0
2016-May-29 04:45 249 0 gusting 1 19.4
2016-May-29 04:00 249 18.3
2016-May-29 03:45 249 18.3
2016-May-29 03:30 249 17.8
2016-May-29 03:00 249 18.3
2016-May-29 02:45 249 18.3
2016-May-29 02:15 249 18.3
2016-May-29 02:00 249 18.9
2016-May-29 01:30 249 18.9
2016-May-29 01:00 249 18.9
2016-May-29 00:45 249 18.9
2016-May-29 00:00 249 19.4
2016-May-28 23:15 249 20.0
2016-May-28 23:00 249 20.0
2016-May-28 22:45 249 20.0
2016-May-28 22:00 249 20.6
2016-May-28 21:30 249 20.6
2016-May-28 21:00 249 20.6
2016-May-28 20:45 249 20.6
2016-May-28 20:30 249 20.6
2016-May-28 20:00 249 21.1
2016-May-28 19:45 249 21.1
2016-May-28 19:00 249 21.1
2016-May-28 18:45 249 21.1
2016-May-28 18:30 249 21.1
2016-May-28 18:15 249 21.1
2016-May-28 18:00 249 21.7
2016-May-28 17:45 249 21.7
2016-May-28 17:30 227 0 gusting 2 21.7
2016-May-28 17:00 231 21.7
2016-May-28 16:45 240 21.7
2016-May-28 16:30 232 0 gusting 4 22.2
2016-May-28 15:45 198 2 gusting 6 22.8
2016-May-28 15:30 219 1 gusting 5 22.8
2016-May-28 15:15 217 1 gusting 5 22.8
2016-May-28 15:00 182 0 gusting 6 22.8
2016-May-28 14:45 224 2 gusting 6 22.8
2016-May-28 14:30 221 1 gusting 6 22.8
2016-May-28 14:15 229 5 gusting 7 22.2
2016-May-28 14:00 224 3 gusting 6 22.8
2016-May-28 13:45 194 2 gusting 6 22.2
2016-May-28 13:30 232 2 gusting 6 22.2
2016-May-28 13:15 241 3 gusting 6 22.8
2016-May-28 13:00 185 4 gusting 6 22.2
2016-May-28 12:45 190 2 gusting 5 22.2
2016-May-28 12:30 186 2 gusting 6 22.2
2016-May-28 12:00 238 1 gusting 6 22.8
2016-May-28 11:45 233 2 gusting 5 22.2
2016-May-28 11:30 207 1 gusting 6 22.8
2016-May-28 11:15 138 0 gusting 6 22.8
2016-May-28 11:00 233 3 gusting 6 21.7
2016-May-28 10:30 219 0 gusting 6 22.2
2016-May-28 10:15 189 1 gusting 6 22.2
2016-May-28 10:00 224 1 gusting 6 22.2
2016-May-28 09:30 249 1 gusting 5 22.2
2016-May-28 09:15 115 0 gusting 6 22.8
2016-May-28 08:30 217 2 gusting 5 21.1
2016-May-28 07:45 223 1 gusting 6 21.7
2016-May-28 07:00 241 2 gusting 6 21.1
2016-May-28 06:30 296 1 gusting 6 21.1
2016-May-28 06:15 230 1 gusting 5 21.7
2016-May-28 06:00 011 1 gusting 6 20.0
2016-May-28 05:45 270 2 gusting 6 18.9
2016-May-28 05:30 252 19.4
2016-May-28 05:15 226 0 gusting 2 20.0
2016-May-28 04:45 262 0 gusting 2 18.9
2016-May-28 04:30 129 1 gusting 6 18.3
2016-May-28 04:00 262 1 gusting 6 18.3